START_TIME,STEP,MOV.,M35,t_acc.,PL05,t_acc.,PL06,t_acc.,PL07,t_acc.
1979-08-05 06:00:22.510 ,0,1,0.,4.8,1.,4.8,0.,4.8,0.,4.8
1979-08-05 06:00:27.310 ,0,1,0.,4.8,2.,4.8,0.,4.8,0.,4.8
1979-08-05 06:00:32.110 ,0,1,0.,4.8,4.,4.8,1.,4.8,0.,4.8
1979-08-05 06:00:36.910 ,0,1,0.,4.8,5.,4.8,1.,4.8,0.,4.8
1979-08-05 06:00:41.710 ,0,1,0.,4.8,1.,4.8,0.,4.8,0.,4.8
1979-08-05 06:00:46.510 ,4,1,0.,4.8,3.,4.8,0.,4.8,0.,4.8
1979-08-05 06:00:51.310 ,4,1,0.,4.8,5.,4.8,0.,4.8,0.,4.8
1979-08-05 06:00:56.110 ,4,1,0.,4.8,0.,4.8,1.,4.8,0.,4.8
1979-08-05 06:01:00.910 ,4,1,0.,4.8,0.,4.8,0.,4.8,0.,4.8
1979-08-05 06:01:05.710 ,4,1,0.,4.8,2.,4.8,0.,4.8,0.,4.8
1979-08-05 06:01:10.510 ,7,1,0.,4.8,0.,4.8,0.,4.8,0.,4.8
1979-08-05 06:01:15.310 ,7,1,,0,,0,,0,,0
1979-08-05 06:01:20.110 ,7,1,0.,4.8,1.,4.8,0.,4.8,1.,4.8
1979-08-05 06:01:24.910 ,7,1,0.,4.8,0.,4.8,0.,4.8,0.,4.8
1979-08-05 06:01:29.710 ,7,1,0.,4.8,0.,4.8,0.,4.8,0.,4.8
1979-08-05 06:01:34.510 ,3,1,0.,4.8,1.,4.8,0.,4.8,0.,4.8
1979-08-05 06:01:39.310 ,3,1,0.,4.8,1.,4.8,0.,4.8,1.,4.8
1979-08-05 06:01:44.110 ,3,1,0.,4.8,2.,4.8,0.,4.8,1.,4.8
1979-08-05 06:01:48.910 ,3,1,0.,4.8,3.,4.8,1.,4.8,1.,4.8
1979-08-05 06:01:53.710 ,3,1,0.,4.8,1.,4.8,1.,4.8,0.,4.8
1979-08-05 06:01:58.510 ,0,0,0.,4.8,4.,4.8,0.,4.8,1.,4.8
1979-08-05 06:02:03.310 ,0,0,0.,4.8,3.,4.8,1.,4.8,0.,4.8
1979-08-05 06:02:08.110 ,0,0,0.,4.8,3.,4.8,1.,4.8,0.,4.8
1979-08-05 06:02:12.910 ,0,0,0.,4.8,1.,4.8,0.,4.8,1.,4.8
1979-08-05 06:02:17.710 ,0,0,0.,4.8,2.,4.8,0.,4.8,1.,4.8
1979-08-05 06:02:24.310 ,4,1,,0,,0,,0,,0
1979-08-05 06:02:29.110 ,4,1,,0,,0,,0,,0
1979-08-05 06:02:33.910 ,4,1,0.,4.8,3.,4.8,0.,4.8,0.,4.8
1979-08-05 06:02:38.710 ,4,1,0.,4.8,2.,4.8,0.,4.8,0.,4.8
1979-08-05 06:02:43.510 ,4,1,0.,4.8,1.,4.8,0.,4.8,0.,4.8
1979-08-05 06:02:46.510 ,7,1,0.,4.8,1.,4.8,0.,4.8,0.,4.8
1979-08-05 06:02:51.310 ,7,1,0.,4.8,1.,4.8,2.,4.8,0.,4.8
1979-08-05 06:02:56.110 ,7,1,0.,4.8,1.,4.8,1.,4.8,0.,4.8
1979-08-05 06:03:00.910 ,7,1,0.,4.8,0.,4.8,1.,4.8,0.,4.8
1979-08-05 06:03:05.710 ,7,1,0.,4.8,0.,4.8,0.,4.8,0.,4.8
1979-08-05 06:03:10.510 ,3,1,0.,4.8,0.,4.8,0.,4.8,0.,4.8
1979-08-05 06:03:15.310 ,3,1,0.,4.8,2.,4.8,0.,4.8,0.,4.8
1979-08-05 06:03:20.110 ,3,1,0.,4.8,2.,4.8,0.,4.8,0.,4.8
1979-08-05 06:03:24.910 ,3,1,0.,4.8,1.,4.8,1.,4.8,1.,4.8
1979-08-05 06:03:29.710 ,3,1,0.,4.8,2.,4.8,0.,4.8,0.,4.8
1979-08-05 06:03:34.510 ,0,1,0.,4.8,2.,4.8,0.,4.8,0.,4.8
1979-08-05 06:03:39.310 ,0,1,0.,4.8,3.,4.8,0.,4.8,0.,4.8
1979-08-05 06:03:44.110 ,0,1,0.,4.8,10.,4.8,0.,4.8,0.,4.8
1979-08-05 06:03:48.910 ,0,1,0.,4.8,3.,4.8,0.,4.8,0.,4.8
1979-08-05 06:03:53.710 ,0,1,0.,4.8,3.,4.8,0.,4.8,0.,4.8
1979-08-05 06:03:58.510 ,4,1,0.,4.8,1.,4.8,0.,4.8,0.,4.8
1979-08-05 06:04:03.310 ,4,1,0.,4.8,3.,4.8,0.,4.8,0.,4.8
1979-08-05 06:04:08.110 ,4,1,0.,4.8,4.,4.8,1.,4.8,1.,4.8
1979-08-05 06:04:12.910 ,4,1,0.,4.8,1.,4.8,0.,4.8,0.,4.8
1979-08-05 06:04:17.710 ,4,1,0.,4.8,3.,4.8,0.,4.8,1.,4.8
1979-08-05 06:04:22.510 ,7,1,0.,4.8,2.,4.8,0.,4.8,0.,4.8
1979-08-05 06:04:27.310 ,7,1,0.,4.8,3.,4.8,0.,4.8,0.,4.8
1979-08-05 06:04:32.110 ,7,1,0.,4.8,1.,4.8,0.,4.8,0.,4.8
1979-08-05 06:04:36.910 ,7,1,0.,4.8,1.,4.8,1.,4.8,0.,4.8
1979-08-05 06:04:41.710 ,7,1,0.,4.8,0.,4.8,0.,4.8,1.,4.8
1979-08-05 06:04:46.510 ,3,1,,0,,0,,0,,0
1979-08-05 06:04:51.310 ,3,1,0.,4.8,6.,4.8,2.,4.8,0.,4.8
1979-08-05 06:04:56.110 ,3,1,0.,4.8,1.,4.8,0.,4.8,0.,4.8
1979-08-05 06:05:00.910 ,3,1,0.,4.8,2.,4.8,0.,4.8,0.,4.8
1979-08-05 06:05:05.710 ,3,1,0.,4.8,2.,4.8,0.,4.8,0.,4.8
1979-08-05 06:05:10.510 ,0,1,0.,4.8,3.,4.8,0.,4.8,0.,4.8
1979-08-05 06:05:15.310 ,0,1,0.,4.8,1.,4.8,0.,4.8,0.,4.8
1979-08-05 06:05:20.110 ,0,1,0.,4.8,2.,4.8,0.,4.8,1.,4.8
1979-08-05 06:05:24.910 ,0,1,0.,4.8,4.,4.8,0.,4.8,1.,4.8
1979-08-05 06:05:29.710 ,0,1,0.,4.8,2.,4.8,0.,4.8,0.,4.8
1979-08-05 06:05:34.510 ,0,0,0.,4.8,2.,4.8,0.,4.8,1.,4.8
1979-08-05 06:05:39.310 ,0,0,0.,4.8,2.,4.8,0.,4.8,1.,4.8
1979-08-05 06:05:44.110 ,0,0,0.,4.8,1.,4.8,0.,4.8,0.,4.8
1979-08-05 06:05:48.910 ,0,0,0.,4.8,2.,4.8,1.,4.8,0.,4.8
1979-08-05 06:05:53.710 ,0,0,0.,4.8,2.,4.8,0.,4.8,0.,4.8
1979-08-05 06:05:58.510 ,0,0,0.,4.8,0.,4.8,0.,4.8,0.,4.8
1979-08-05 06:06:03.310 ,0,0,0.,4.8,4.,4.8,0.,4.8,0.,4.8
1979-08-05 06:06:08.110 ,0,0,0.,4.8,1.,4.8,0.,4.8,0.,4.8
1979-08-05 06:06:12.910 ,0,0,0.,4.8,3.,4.8,0.,4.8,0.,4.8
1979-08-05 06:06:17.710 ,0,0,0.,4.8,0.,4.8,0.,4.8,1.,4.8
1979-08-05 06:06:22.510 ,5,0,0.,4.8,2.,4.8,0.,4.8,0.,4.8
1979-08-05 06:06:27.310 ,5,0,0.,4.8,1.,4.8,1.,4.8,0.,4.8
1979-08-05 06:06:32.110 ,5,0,0.,4.8,1.,4.8,2.,4.8,0.,4.8
1979-08-05 06:06:36.910 ,5,0,0.,4.8,3.,4.8,0.,4.8,1.,4.8
1979-08-05 06:06:41.710 ,5,0,0.,4.8,2.,4.8,0.,4.8,0.,4.8
1979-08-05 06:06:46.510 ,5,0,0.,4.8,2.,4.8,0.,4.8,0.,4.8
1979-08-05 06:06:51.310 ,5,0,0.,4.8,4.,4.8,0.,4.8,0.,4.8
1979-08-05 06:06:56.110 ,5,0,0.,4.8,3.,4.8,0.,4.8,0.,4.8
1979-08-05 06:07:00.910 ,5,0,0.,4.8,3.,4.8,1.,4.8,0.,4.8
1979-08-05 06:07:05.710 ,5,0,0.,4.8,3.,4.8,0.,4.8,0.,4.8
1979-08-05 06:07:10.510 ,4,0,0.,4.8,2.,4.8,0.,4.8,0.,4.8
1979-08-05 06:07:15.310 ,4,0,0.,4.8,0.,4.8,0.,4.8,0.,4.8
1979-08-05 06:07:20.110 ,4,0,0.,4.8,1.,4.8,0.,4.8,0.,4.8
1979-08-05 06:07:24.910 ,4,0,0.,4.8,1.,4.8,1.,4.8,0.,4.8
1979-08-05 06:07:29.710 ,4,0,0.,4.8,1.,4.8,0.,4.8,0.,4.8
1979-08-05 06:07:34.510 ,4,0,0.,4.8,0.,4.8,0.,4.8,1.,4.8
1979-08-05 06:07:39.310 ,4,0,0.,4.8,1.,4.8,0.,4.8,0.,4.8
1979-08-05 06:07:44.110 ,4,0,0.,4.8,0.,4.8,0.,4.8,0.,4.8
1979-08-05 06:07:48.910 ,4,0,0.,4.8,2.,4.8,0.,4.8,0.,4.8
1979-08-05 06:07:53.710 ,4,0,0.,4.8,0.,4.8,0.,4.8,0.,4.8
1979-08-05 06:07:58.510 ,3,0,0.,4.8,3.,4.8,0.,4.8,0.,4.8
1979-08-05 06:08:03.310 ,3,0,0.,4.8,1.,4.8,0.,4.8,0.,4.8
1979-08-05 06:08:08.110 ,3,0,0.,4.8,1.,4.8,0.,4.8,0.,4.8
1979-08-05 06:08:12.910 ,3,0,0.,4.8,1.,4.8,1.,4.8,0.,4.8
1979-08-05 06:08:17.710 ,3,0,0.,4.8,0.,4.8,0.,4.8,1.,4.8
1979-08-05 06:08:22.510 ,0,0,0.,4.8,2.,4.8,1.,4.8,0.,4.8
1979-08-05 06:08:27.310 ,0,0,0.,4.8,2.,4.8,1.,4.8,1.,4.8
1979-08-05 06:08:32.110 ,0,0,0.,4.8,2.,4.8,0.,4.8,1.,4.8
1979-08-05 06:08:36.910 ,0,0,0.,4.8,2.,4.8,0.,4.8,1.,4.8
1979-08-05 06:08:41.710 ,0,0,0.,4.8,1.,4.8,0.,4.8,0.,4.8
1979-08-05 06:08:51.910 ,0,0,,0,,0,,0,,0
1979-08-05 06:08:56.710 ,0,0,0.,4.8,2.,4.8,1.,4.8,0.,4.8
1979-08-05 06:09:01.510 ,0,0,0.,4.8,4.,4.8,0.,4.8,0.,4.8
1979-08-05 06:09:06.310 ,0,0,0.,4.8,4.,4.8,1.,4.8,0.,4.8
1979-08-05 06:09:11.110 ,0,0,0.,4.8,6.,4.8,0.,4.8,0.,4.8
1979-08-05 06:09:10.510 ,0,0,0.,4.8,4.,4.8,0.,4.8,0.,4.8
1979-08-05 06:09:15.310 ,0,0,0.,4.8,4.,4.8,0.,4.8,0.,4.8
1979-08-05 06:09:20.110 ,0,0,0.,4.8,1.,4.8,0.,4.8,1.,4.8
1979-08-05 06:09:24.910 ,0,0,0.,4.8,0.,4.8,0.,4.8,1.,4.8
1979-08-05 06:09:29.710 ,0,0,0.,4.8,2.,4.8,0.,4.8,0.,4.8
1979-08-05 06:09:34.510 ,1,0,0.,4.8,4.,4.8,0.,4.8,0.,4.8
1979-08-05 06:09:39.310 ,1,0,0.,4.8,5.,4.8,0.,4.8,1.,4.8
1979-08-05 06:09:44.110 ,1,0,0.,4.8,3.,4.8,0.,4.8,0.,4.8
1979-08-05 06:09:48.910 ,1,0,0.,4.8,3.,4.8,0.,4.8,1.,4.8
1979-08-05 06:09:53.710 ,1,0,0.,4.8,8.,4.8,0.,4.8,1.,4.8
1979-08-05 06:09:58.510 ,1,0,0.,4.8,7.,4.8,2.,4.8,0.,4.8
1979-08-05 06:10:03.310 ,1,0,0.,4.8,5.,4.8,0.,4.8,0.,4.8
1979-08-05 06:10:08.110 ,1,0,0.,4.8,2.,4.8,0.,4.8,3.,4.8
1979-08-05 06:10:12.910 ,1,0,0.,4.8,4.,4.8,0.,4.8,0.,4.8
1979-08-05 06:10:17.710 ,1,0,0.,4.8,8.,4.8,4.,4.8,0.,4.8
1979-08-05 06:10:22.510 ,0,0,0.,4.8,2.,4.8,4.,4.8,1.,4.8
1979-08-05 06:10:27.310 ,0,0,0.,4.8,6.,4.8,1.,4.8,0.,4.8
1979-08-05 06:10:32.110 ,0,0,0.,4.8,7.,4.8,1.,4.8,0.,4.8
1979-08-05 06:10:36.910 ,0,0,0.,4.8,5.,4.8,2.,4.8,0.,4.8
1979-08-05 06:10:41.710 ,0,0,0.,4.8,6.,4.8,0.,4.8,0.,4.8
1979-08-05 06:10:46.510 ,0,0,0.,4.8,9.,4.8,0.,4.8,0.,4.8
1979-08-05 06:10:51.310 ,0,0,0.,4.8,8.,4.8,0.,4.8,1.,4.8
1979-08-05 06:10:56.110 ,0,0,0.,4.8,9.,4.8,1.,4.8,0.,4.8
1979-08-05 06:11:00.910 ,0,0,0.,4.8,8.,4.8,0.,4.8,1.,4.8
1979-08-05 06:11:05.710 ,0,0,0.,4.8,5.,4.8,0.,4.8,0.,4.8
1979-08-05 06:11:10.510 ,0,0,0.,4.8,7.,4.8,2.,4.8,0.,4.8
1979-08-05 06:11:15.310 ,0,0,0.,4.8,10.,4.8,3.,4.8,0.,4.8
1979-08-05 06:11:20.110 ,0,0,0.,4.8,3.,4.8,0.,4.8,0.,4.8
1979-08-05 06:11:24.910 ,0,0,0.,4.8,12.,4.8,0.,4.8,0.,4.8
1979-08-05 06:11:29.710 ,0,0,0.,4.8,6.,4.8,0.,4.8,0.,4.8
1979-08-05 06:11:34.510 ,0,0,0.,4.8,4.,4.8,1.,4.8,0.,4.8
1979-08-05 06:11:39.310 ,0,0,0.,4.8,5.,4.8,0.,4.8,0.,4.8
1979-08-05 06:11:44.110 ,0,0,0.,4.8,5.,4.8,2.,4.8,0.,4.8
1979-08-05 06:11:48.910 ,0,0,0.,4.8,5.,4.8,0.,4.8,1.,4.8
1979-08-05 06:11:53.710 ,0,0,0.,4.8,4.,4.8,0.,4.8,0.,4.8
1979-08-05 06:11:58.510 ,1,0,0.,4.8,9.,4.8,0.,4.8,0.,4.8
1979-08-05 06:12:03.310 ,1,0,0.,4.8,7.,4.8,1.,4.8,1.,4.8
1979-08-05 06:12:08.110 ,1,0,0.,4.8,7.,4.8,1.,4.8,2.,4.8
1979-08-05 06:12:12.910 ,1,0,0.,4.8,5.,4.8,3.,4.8,0.,4.8
1979-08-05 06:12:17.710 ,1,0,0.,4.8,6.,4.8,1.,4.8,0.,4.8
1979-08-05 06:12:22.510 ,1,0,0.,4.8,11.,4.8,2.,4.8,1.,4.8
1979-08-05 06:12:27.310 ,1,0,0.,4.8,7.,4.8,1.,4.8,0.,4.8
1979-08-05 06:12:32.110 ,1,0,0.,4.8,5.,4.8,1.,4.8,0.,4.8
1979-08-05 06:12:36.910 ,1,0,0.,4.8,8.,4.8,0.,4.8,0.,4.8
1979-08-05 06:12:41.710 ,1,0,0.,4.8,3.,4.8,0.,4.8,0.,4.8
1979-08-05 06:12:46.510 ,2,0,0.,4.8,11.,4.8,1.,4.8,0.,4.8
1979-08-05 06:12:51.310 ,2,0,0.,4.8,7.,4.8,0.,4.8,0.,4.8
1979-08-05 06:12:56.110 ,2,0,0.,4.8,3.,4.8,1.,4.8,0.,4.8
1979-08-05 06:13:00.910 ,2,0,0.,4.8,3.,4.8,0.,4.8,0.,4.8
1979-08-05 06:13:05.710 ,2,0,0.,4.8,4.,4.8,0.,4.8,0.,4.8
1979-08-05 06:13:10.510 ,2,0,0.,4.8,6.,4.8,0.,4.8,0.,4.8
1979-08-05 06:13:15.310 ,2,0,0.,4.8,5.,4.8,0.,4.8,1.,4.8
1979-08-05 06:13:20.110 ,2,0,0.,4.8,1.,4.8,0.,4.8,0.,4.8
1979-08-05 06:13:24.910 ,2,0,0.,4.8,1.,4.8,0.,4.8,0.,4.8
1979-08-05 06:13:29.710 ,2,0,0.,4.8,2.,4.8,0.,4.8,0.,4.8
1979-08-05 06:13:34.510 ,3,0,0.,4.8,0.,4.8,0.,4.8,0.,4.8
1979-08-05 06:13:39.310 ,3,0,0.,4.8,3.,4.8,1.,4.8,0.,4.8
1979-08-05 06:13:44.110 ,3,0,0.,4.8,0.,4.8,1.,4.8,0.,4.8
1979-08-05 06:13:48.910 ,3,0,0.,4.8,0.,4.8,0.,4.8,0.,4.8
1979-08-05 06:13:53.710 ,3,0,0.,4.8,2.,4.8,0.,4.8,0.,4.8
1979-08-05 06:13:58.510 ,3,0,0.,4.8,0.,4.8,0.,4.8,0.,4.8
1979-08-05 06:14:03.310 ,3,0,0.,4.8,4.,4.8,0.,4.8,0.,4.8
1979-08-05 06:14:08.110 ,3,0,0.,4.8,3.,4.8,1.,4.8,0.,4.8
1979-08-05 06:14:12.910 ,3,0,0.,4.8,1.,4.8,2.,4.8,0.,4.8
1979-08-05 06:14:17.710 ,3,0,0.,4.8,2.,4.8,0.,4.8,0.,4.8
1979-08-05 06:14:22.510 ,4,0,0.,4.8,1.,4.8,0.,4.8,0.,4.8
1979-08-05 06:14:27.310 ,4,0,0.,4.8,2.,4.8,0.,4.8,0.,4.8
1979-08-05 06:14:32.110 ,4,0,0.,4.8,6.,4.8,0.,4.8,0.,4.8
1979-08-05 06:14:36.910 ,4,0,0.,4.8,4.,4.8,1.,4.8,0.,4.8
1979-08-05 06:14:41.710 ,4,0,0.,4.8,1.,4.8,0.,4.8,0.,4.8
1979-08-05 06:14:46.510 ,4,0,0.,4.8,0.,4.8,0.,4.8,0.,4.8
1979-08-05 06:14:51.310 ,4,0,0.,4.8,1.,4.8,0.,4.8,0.,4.8
1979-08-05 06:14:56.110 ,4,0,0.,4.8,2.,4.8,0.,4.8,0.,4.8
1979-08-05 06:15:00.910 ,4,0,0.,4.8,0.,4.8,2.,4.8,0.,4.8
1979-08-05 06:15:05.710 ,4,0,0.,4.8,1.,4.8,1.,4.8,0.,4.8
1979-08-05 06:15:10.510 ,5,0,0.,4.8,0.,4.8,0.,4.8,0.,4.8
1979-08-05 06:15:15.310 ,5,0,0.,4.8,1.,4.8,0.,4.8,0.,4.8
1979-08-05 06:15:20.110 ,5,0,0.,4.8,1.,4.8,0.,4.8,0.,4.8
1979-08-05 06:15:24.910 ,5,0,0.,4.8,4.,4.8,0.,4.8,0.,4.8
1979-08-05 06:15:29.710 ,5,0,,0,,0,,0,,0
1979-08-05 06:15:34.510 ,5,0,0.,4.8,4.,4.8,0.,4.8,0.,4.8
1979-08-05 06:15:39.310 ,5,0,0.,4.8,0.,4.8,0.,4.8,0.,4.8
1979-08-05 06:15:44.110 ,5,0,0.,4.8,4.,4.8,1.,4.8,0.,4.8
1979-08-05 06:15:48.910 ,5,0,0.,4.8,3.,4.8,0.,4.8,0.,4.8
1979-08-05 06:15:53.710 ,5,0,0.,4.8,3.,4.8,0.,4.8,0.,4.8
1979-08-05 06:15:58.510 ,6,0,0.,4.8,1.,4.8,0.,4.8,0.,4.8
1979-08-05 06:16:03.310 ,6,0,0.,4.8,2.,4.8,0.,4.8,0.,4.8
1979-08-05 06:16:08.110 ,6,0,0.,4.8,3.,4.8,0.,4.8,0.,4.8
1979-08-05 06:16:12.910 ,6,0,0.,4.8,6.,4.8,0.,4.8,1.,4.8
1979-08-05 06:16:17.710 ,6,0,0.,4.8,7.,4.8,0.,4.8,0.,4.8
1979-08-05 06:16:22.510 ,6,0,0.,4.8,3.,4.8,0.,4.8,0.,4.8
1979-08-05 06:16:27.310 ,6,0,0.,4.8,4.,4.8,1.,4.8,1.,4.8
1979-08-05 06:16:32.110 ,6,0,0.,4.8,2.,4.8,0.,4.8,1.,4.8
1979-08-05 06:16:36.910 ,6,0,0.,4.8,5.,4.8,0.,4.8,0.,4.8
1979-08-05 06:16:41.710 ,6,0,0.,4.8,3.,4.8,0.,4.8,1.,4.8
1979-08-05 06:16:46.510 ,7,0,0.,4.8,1.,4.8,2.,4.8,1.,4.8
1979-08-05 06:16:51.310 ,7,0,0.,4.8,4.,4.8,1.,4.8,0.,4.8
1979-08-05 06:16:56.110 ,7,0,0.,4.8,2.,4.8,0.,4.8,0.,4.8
1979-08-05 06:17:00.910 ,7,0,0.,4.8,0.,4.8,0.,4.8,0.,4.8
1979-08-05 06:17:05.710 ,7,0,0.,4.8,2.,4.8,2.,4.8,0.,4.8
1979-08-05 06:17:10.510 ,7,0,0.,4.8,1.,4.8,0.,4.8,0.,4.8
1979-08-05 06:17:15.310 ,7,0,0.,4.8,1.,4.8,0.,4.8,0.,4.8
1979-08-05 06:17:20.110 ,7,0,0.,4.8,0.,4.8,0.,4.8,0.,4.8
1979-08-05 06:17:24.910 ,7,0,0.,4.8,3.,4.8,0.,4.8,0.,4.8
1979-08-05 06:17:29.710 ,7,0,0.,4.8,0.,4.8,0.,4.8,0.,4.8
1979-08-05 06:17:34.510 ,7,0,0.,4.8,0.,4.8,0.,4.8,0.,4.8
1979-08-05 06:17:39.310 ,7,0,0.,4.8,1.,4.8,0.,4.8,0.,4.8
1979-08-05 06:17:44.110 ,7,0,0.,4.8,0.,4.8,0.,4.8,0.,4.8
1979-08-05 06:17:48.910 ,7,0,0.,4.8,1.,4.8,0.,4.8,0.,4.8
1979-08-05 06:17:53.710 ,7,0,0.,4.8,0.,4.8,0.,4.8,0.,4.8
1979-08-05 06:17:58.510 ,7,0,0.,4.8,1.,4.8,0.,4.8,0.,4.8
1979-08-05 06:18:03.310 ,7,0,0.,4.8,0.,4.8,0.,4.8,0.,4.8
1979-08-05 06:18:08.110 ,7,0,0.,4.8,0.,4.8,0.,4.8,0.,4.8
1979-08-05 06:18:12.910 ,7,0,0.,4.8,2.,4.8,0.,4.8,0.,4.8
1979-08-05 06:18:17.710 ,7,0,0.,4.8,2.,4.8,0.,4.8,0.,4.8
1979-08-05 06:18:22.510 ,6,0,0.,4.8,0.,4.8,1.,4.8,0.,4.8
1979-08-05 06:18:27.310 ,6,0,0.,4.8,1.,4.8,0.,4.8,0.,4.8
1979-08-05 06:18:32.110 ,6,0,0.,4.8,3.,4.8,0.,4.8,0.,4.8
1979-08-05 06:18:36.910 ,6,0,0.,4.8,5.,4.8,1.,4.8,0.,4.8
1979-08-05 06:18:41.710 ,6,0,0.,4.8,3.,4.8,1.,4.8,1.,4.8
1979-08-05 06:18:46.510 ,6,0,0.,4.8,7.,4.8,0.,4.8,0.,4.8
1979-08-05 06:18:51.310 ,6,0,0.,4.8,3.,4.8,1.,4.8,0.,4.8
1979-08-05 06:18:56.110 ,6,0,0.,4.8,2.,4.8,0.,4.8,0.,4.8
1979-08-05 06:19:00.910 ,6,0,0.,4.8,5.,4.8,0.,4.8,0.,4.8
1979-08-05 06:19:05.710 ,6,0,0.,4.8,5.,4.8,0.,4.8,0.,4.8
1979-08-05 06:19:10.510 ,5,0,0.,4.8,2.,4.8,1.,4.8,0.,4.8
1979-08-05 06:19:15.310 ,5,0,0.,4.8,5.,4.8,0.,4.8,1.,4.8
1979-08-05 06:19:20.110 ,5,0,0.,4.8,2.,4.8,0.,4.8,0.,4.8
1979-08-05 06:19:24.910 ,5,0,0.,4.8,8.,4.8,1.,4.8,0.,4.8
1979-08-05 06:19:29.710 ,5,0,0.,4.8,1.,4.8,2.,4.8,0.,4.8
1979-08-05 06:19:34.510 ,5,0,0.,4.8,1.,4.8,0.,4.8,0.,4.8
1979-08-05 06:19:39.310 ,5,0,0.,4.8,5.,4.8,1.,4.8,0.,4.8
1979-08-05 06:19:44.110 ,5,0,0.,4.8,4.,4.8,0.,4.8,0.,4.8
1979-08-05 06:19:48.910 ,5,0,0.,4.8,1.,4.8,0.,4.8,0.,4.8
1979-08-05 06:19:53.710 ,5,0,0.,4.8,3.,4.8,0.,4.8,0.,4.8
1979-08-05 06:19:58.510 ,4,0,0.,4.8,3.,4.8,0.,4.8,0.,4.8
1979-08-05 06:20:03.310 ,4,0,0.,4.8,3.,4.8,2.,4.8,0.,4.8
1979-08-05 06:20:08.110 ,4,0,0.,4.8,2.,4.8,0.,4.8,0.,4.8
1979-08-05 06:20:12.910 ,4,0,0.,4.8,1.,4.8,0.,4.8,0.,4.8
1979-08-05 06:20:17.710 ,4,0,0.,4.8,0.,4.8,0.,4.8,0.,4.8
1979-08-05 06:20:22.510 ,4,0,0.,4.8,4.,4.8,0.,4.8,0.,4.8
1979-08-05 06:20:27.310 ,4,0,0.,4.8,1.,4.8,1.,4.8,0.,4.8
1979-08-05 06:20:32.110 ,4,0,0.,4.8,2.,4.8,0.,4.8,1.,4.8
1979-08-05 06:20:36.910 ,4,0,0.,4.8,0.,4.8,1.,4.8,0.,4.8
1979-08-05 06:20:41.710 ,4,0,0.,4.8,1.,4.8,1.,4.8,0.,4.8
1979-08-05 06:20:46.510 ,3,0,0.,4.8,4.,4.8,1.,4.8,0.,4.8
1979-08-05 06:20:51.310 ,3,0,0.,4.8,2.,4.8,0.,4.8,0.,4.8
1979-08-05 06:20:56.110 ,3,0,0.,4.8,1.,4.8,0.,4.8,1.,4.8
1979-08-05 06:21:00.910 ,3,0,0.,4.8,0.,4.8,0.,4.8,0.,4.8
1979-08-05 06:21:05.710 ,3,0,0.,4.8,3.,4.8,0.,4.8,0.,4.8
1979-08-05 06:21:10.510 ,3,0,0.,4.8,1.,4.8,1.,4.8,1.,4.8
1979-08-05 06:21:15.310 ,3,0,0.,4.8,3.,4.8,0.,4.8,0.,4.8
1979-08-05 06:21:20.110 ,3,0,0.,4.8,2.,4.8,0.,4.8,0.,4.8
1979-08-05 06:21:24.910 ,3,0,0.,4.8,4.,4.8,0.,4.8,0.,4.8
1979-08-05 06:21:29.710 ,3,0,0.,4.8,0.,4.8,0.,4.8,0.,4.8
1979-08-05 06:21:34.510 ,2,0,0.,4.8,1.,4.8,0.,4.8,0.,4.8
1979-08-05 06:21:39.310 ,2,0,0.,4.8,1.,4.8,0.,4.8,0.,4.8
1979-08-05 06:21:44.110 ,2,0,0.,4.8,4.,4.8,0.,4.8,0.,4.8
1979-08-05 06:21:48.910 ,2,0,0.,4.8,2.,4.8,1.,4.8,0.,4.8
1979-08-05 06:21:53.710 ,2,0,0.,4.8,1.,4.8,0.,4.8,1.,4.8
1979-08-05 06:21:58.510 ,2,0,0.,4.8,1.,4.8,0.,4.8,1.,4.8
1979-08-05 06:22:03.310 ,2,0,0.,4.8,2.,4.8,0.,4.8,0.,4.8
1979-08-05 06:22:08.110 ,2,0,0.,4.8,1.,4.8,0.,4.8,1.,4.8
1979-08-05 06:22:12.910 ,2,0,0.,4.8,2.,4.8,0.,4.8,0.,4.8
1979-08-05 06:22:17.710 ,2,0,0.,4.8,1.,4.8,1.,4.8,0.,4.8
1979-08-05 06:22:22.510 ,1,0,0.,4.8,1.,4.8,0.,4.8,1.,4.8
1979-08-05 06:22:27.310 ,1,0,0.,4.8,3.,4.8,0.,4.8,1.,4.8
1979-08-05 06:22:32.110 ,1,0,0.,4.8,5.,4.8,1.,4.8,0.,4.8
1979-08-05 06:22:36.910 ,1,0,0.,4.8,6.,4.8,0.,4.8,0.,4.8
1979-08-05 06:22:41.710 ,1,0,0.,4.8,4.,4.8,1.,4.8,0.,4.8
1979-08-05 06:22:46.510 ,1,0,0.,4.8,5.,4.8,0.,4.8,1.,4.8
1979-08-05 06:22:51.310 ,1,0,0.,4.8,6.,4.8,0.,4.8,0.,4.8
1979-08-05 06:22:56.110 ,1,0,0.,4.8,5.,4.8,1.,4.8,0.,4.8
1979-08-05 06:23:00.910 ,1,0,0.,4.8,9.,4.8,0.,4.8,0.,4.8
1979-08-05 06:23:05.710 ,1,0,0.,4.8,2.,4.8,0.,4.8,0.,4.8
1979-08-05 06:23:10.510 ,0,0,0.,4.8,1.,4.8,0.,4.8,0.,4.8
1979-08-05 06:23:15.310 ,0,0,0.,4.8,5.,4.8,1.,4.8,0.,4.8
1979-08-05 06:23:20.110 ,0,0,0.,4.8,11.,4.8,2.,4.8,0.,4.8
1979-08-05 06:23:24.910 ,0,0,1.,4.8,5.,4.8,1.,4.8,1.,4.8
1979-08-05 06:23:29.710 ,0,0,0.,4.8,6.,4.8,1.,4.8,0.,4.8
1979-08-05 06:23:34.510 ,0,0,0.,4.8,11.,4.8,0.,4.8,0.,4.8
1979-08-05 06:23:39.310 ,0,0,0.,4.8,2.,4.8,0.,4.8,1.,4.8
1979-08-05 06:23:44.110 ,0,0,0.,4.8,8.,4.8,1.,4.8,3.,4.8
1979-08-05 06:23:48.910 ,0,0,0.,4.8,7.,4.8,1.,4.8,0.,4.8
1979-08-05 06:23:53.710 ,0,0,0.,4.8,11.,4.8,0.,4.8,0.,4.8
1979-08-05 06:23:58.510 ,0,0,0.,4.8,8.,4.8,1.,4.8,1.,4.8
1979-08-05 06:24:03.310 ,0,0,0.,4.8,13.,4.8,2.,4.8,0.,4.8
1979-08-05 06:24:08.110 ,0,0,0.,4.8,8.,4.8,0.,4.8,0.,4.8
1979-08-05 06:24:12.910 ,0,0,0.,4.8,14.,4.8,0.,4.8,1.,4.8
1979-08-05 06:24:17.710 ,0,0,0.,4.8,8.,4.8,1.,4.8,0.,4.8
1979-08-05 06:24:22.510 ,0,0,0.,4.8,11.,4.8,0.,4.8,0.,4.8
1979-08-05 06:24:27.310 ,0,0,0.,4.8,13.,4.8,2.,4.8,0.,4.8
1979-08-05 06:24:32.110 ,0,0,0.,4.8,13.,4.8,0.,4.8,0.,4.8
1979-08-05 06:24:36.910 ,0,0,0.,4.8,9.,4.8,1.,4.8,1.,4.8
1979-08-05 06:24:41.710 ,0,0,0.,4.8,12.,4.8,0.,4.8,0.,4.8
1979-08-05 06:24:46.510 ,1,0,0.,4.8,7.,4.8,0.,4.8,1.,4.8
1979-08-05 06:24:51.310 ,1,0,0.,4.8,11.,4.8,1.,4.8,1.,4.8
1979-08-05 06:24:56.110 ,1,0,0.,4.8,6.,4.8,0.,4.8,0.,4.8
1979-08-05 06:25:00.910 ,1,0,0.,4.8,9.,4.8,0.,4.8,1.,4.8
1979-08-05 06:25:05.710 ,1,0,0.,4.8,8.,4.8,0.,4.8,0.,4.8
1979-08-05 06:25:10.510 ,1,0,0.,4.8,7.,4.8,0.,4.8,0.,4.8
1979-08-05 06:25:15.310 ,1,0,0.,4.8,8.,4.8,0.,4.8,0.,4.8
1979-08-05 06:25:20.110 ,1,0,0.,4.8,10.,4.8,4.,4.8,0.,4.8
1979-08-05 06:25:24.910 ,1,0,0.,4.8,4.,4.8,0.,4.8,0.,4.8
1979-08-05 06:25:29.710 ,1,0,0.,4.8,6.,4.8,2.,4.8,0.,4.8
1979-08-05 06:25:34.510 ,2,0,0.,4.8,5.,4.8,0.,4.8,2.,4.8
1979-08-05 06:25:39.310 ,2,0,0.,4.8,5.,4.8,0.,4.8,0.,4.8
1979-08-05 06:25:44.110 ,2,0,0.,4.8,3.,4.8,2.,4.8,0.,4.8
1979-08-05 06:25:48.910 ,2,0,0.,4.8,3.,4.8,0.,4.8,0.,4.8
1979-08-05 06:25:53.710 ,2,0,0.,4.8,2.,4.8,1.,4.8,0.,4.8
1979-08-05 06:25:58.510 ,2,0,0.,4.8,3.,4.8,0.,4.8,1.,4.8
1979-08-05 06:26:03.310 ,2,0,0.,4.8,5.,4.8,0.,4.8,0.,4.8
1979-08-05 06:26:08.110 ,2,0,0.,4.8,0.,4.8,1.,4.8,1.,4.8
1979-08-05 06:26:12.910 ,2,0,0.,4.8,2.,4.8,0.,4.8,0.,4.8
1979-08-05 06:26:17.710 ,2,0,0.,4.8,3.,4.8,0.,4.8,0.,4.8
1979-08-05 06:26:22.510 ,3,0,0.,4.8,6.,4.8,0.,4.8,0.,4.8
1979-08-05 06:26:27.310 ,3,0,0.,4.8,5.,4.8,0.,4.8,0.,4.8
1979-08-05 06:26:32.110 ,3,0,0.,4.8,2.,4.8,1.,4.8,0.,4.8
1979-08-05 06:26:36.910 ,3,0,0.,4.8,4.,4.8,0.,4.8,1.,4.8
1979-08-05 06:26:41.710 ,3,0,0.,4.8,1.,4.8,0.,4.8,0.,4.8
1979-08-05 06:26:46.510 ,3,0,0.,4.8,4.,4.8,0.,4.8,1.,4.8
1979-08-05 06:26:51.310 ,3,0,0.,4.8,4.,4.8,0.,4.8,0.,4.8
1979-08-05 06:26:56.110 ,3,0,0.,4.8,0.,4.8,1.,4.8,0.,4.8
1979-08-05 06:27:00.910 ,3,0,0.,4.8,0.,4.8,0.,4.8,0.,4.8
1979-08-05 06:27:05.710 ,3,0,0.,4.8,1.,4.8,0.,4.8,0.,4.8
1979-08-05 06:27:10.510 ,4,0,0.,4.8,2.,4.8,0.,4.8,0.,4.8
1979-08-05 06:27:15.310 ,4,0,0.,4.8,2.,4.8,0.,4.8,0.,4.8
1979-08-05 06:27:20.110 ,4,0,0.,4.8,1.,4.8,0.,4.8,1.,4.8
1979-08-05 06:27:24.910 ,4,0,0.,4.8,0.,4.8,0.,4.8,0.,4.8
1979-08-05 06:27:29.710 ,4,0,0.,4.8,3.,4.8,0.,4.8,1.,4.8
1979-08-05 06:27:34.510 ,4,0,0.,4.8,3.,4.8,0.,4.8,0.,4.8
1979-08-05 06:27:39.310 ,4,0,0.,4.8,2.,4.8,1.,4.8,0.,4.8
1979-08-05 06:27:44.110 ,4,0,0.,4.8,0.,4.8,0.,4.8,0.,4.8
1979-08-05 06:27:48.910 ,4,0,0.,4.8,1.,4.8,0.,4.8,0.,4.8
1979-08-05 06:27:53.710 ,4,0,0.,4.8,0.,4.8,0.,4.8,0.,4.8
1979-08-05 06:27:58.510 ,5,0,0.,4.8,1.,4.8,0.,4.8,0.,4.8
1979-08-05 06:28:03.310 ,5,0,0.,4.8,2.,4.8,0.,4.8,0.,4.8
1979-08-05 06:28:08.110 ,5,0,0.,4.8,1.,4.8,0.,4.8,0.,4.8
1979-08-05 06:28:12.910 ,5,0,0.,4.8,2.,4.8,0.,4.8,0.,4.8
1979-08-05 06:28:17.710 ,5,0,0.,4.8,1.,4.8,0.,4.8,0.,4.8
1979-08-05 06:28:22.510 ,5,0,0.,4.8,3.,4.8,0.,4.8,0.,4.8
1979-08-05 06:28:27.310 ,5,0,0.,4.8,1.,4.8,0.,4.8,0.,4.8
1979-08-05 06:28:32.110 ,5,0,0.,4.8,1.,4.8,0.,4.8,1.,4.8
1979-08-05 06:28:36.910 ,5,0,0.,4.8,2.,4.8,0.,4.8,0.,4.8
1979-08-05 06:28:41.710 ,5,0,0.,4.8,4.,4.8,1.,4.8,0.,4.8
1979-08-05 06:28:46.510 ,6,0,0.,4.8,0.,4.8,0.,4.8,0.,4.8
1979-08-05 06:28:51.310 ,6,0,0.,4.8,0.,4.8,0.,4.8,0.,4.8
1979-08-05 06:28:56.110 ,6,0,0.,4.8,7.,4.8,0.,4.8,1.,4.8
1979-08-05 06:29:00.910 ,6,0,0.,4.8,5.,4.8,2.,4.8,0.,4.8
1979-08-05 06:29:05.710 ,6,0,0.,4.8,3.,4.8,1.,4.8,1.,4.8
1979-08-05 06:29:10.510 ,6,0,0.,4.8,3.,4.8,0.,4.8,0.,4.8
1979-08-05 06:29:15.310 ,6,0,0.,4.8,1.,4.8,0.,4.8,0.,4.8
1979-08-05 06:29:20.110 ,6,0,0.,4.8,3.,4.8,1.,4.8,0.,4.8
1979-08-05 06:29:24.910 ,6,0,0.,4.8,5.,4.8,0.,4.8,1.,4.8
1979-08-05 06:29:29.710 ,6,0,0.,4.8,6.,4.8,1.,4.8,0.,4.8
1979-08-05 06:29:34.510 ,7,0,0.,4.8,3.,4.8,0.,4.8,0.,4.8
1979-08-05 06:29:39.310 ,7,0,0.,4.8,2.,4.8,1.,4.8,0.,4.8
1979-08-05 06:29:44.110 ,7,0,0.,4.8,1.,4.8,1.,4.8,0.,4.8
1979-08-05 06:29:48.910 ,7,0,0.,4.8,0.,4.8,0.,4.8,3.,4.8
1979-08-05 06:29:53.710 ,7,0,0.,4.8,0.,4.8,0.,4.8,0.,4.8
1979-08-05 06:29:58.510 ,7,0,0.,4.8,0.,4.8,0.,4.8,0.,4.8
1979-08-05 06:30:03.310 ,7,0,0.,4.8,0.,4.8,1.,4.8,0.,4.8
1979-08-05 06:30:08.110 ,7,0,0.,4.8,0.,4.8,0.,4.8,0.,4.8
1979-08-05 06:30:12.910 ,7,0,0.,4.8,0.,4.8,0.,4.8,1.,4.8
1979-08-05 06:30:17.710 ,7,0,0.,4.8,2.,4.8,0.,4.8,0.,4.8
1979-08-05 06:30:22.510 ,7,0,0.,4.8,1.,4.8,0.,4.8,0.,4.8
1979-08-05 06:30:27.310 ,7,0,0.,4.8,2.,4.8,0.,4.8,1.,4.8
1979-08-05 06:30:32.110 ,7,0,0.,4.8,0.,4.8,0.,4.8,0.,4.8
1979-08-05 06:30:36.910 ,7,0,0.,4.8,2.,4.8,0.,4.8,0.,4.8
1979-08-05 06:30:41.710 ,7,0,0.,4.8,2.,4.8,1.,4.8,0.,4.8
1979-08-05 06:30:46.510 ,7,0,0.,4.8,0.,4.8,0.,4.8,0.,4.8
1979-08-05 06:30:51.310 ,7,0,0.,4.8,0.,4.8,0.,4.8,0.,4.8
1979-08-05 06:30:56.110 ,7,0,0.,4.8,2.,4.8,0.,4.8,1.,4.8
1979-08-05 06:31:00.910 ,7,0,0.,4.8,0.,4.8,0.,4.8,0.,4.8
1979-08-05 06:31:05.710 ,7,0,0.,4.8,2.,4.8,1.,4.8,0.,4.8
1979-08-05 06:31:10.510 ,6,0,0.,4.8,0.,4.8,0.,4.8,0.,4.8
1979-08-05 06:31:15.310 ,6,0,0.,4.8,0.,4.8,2.,4.8,0.,4.8
1979-08-05 06:31:20.110 ,6,0,0.,4.8,1.,4.8,0.,4.8,0.,4.8
1979-08-05 06:31:24.910 ,6,0,0.,4.8,2.,4.8,0.,4.8,0.,4.8
1979-08-05 06:31:29.710 ,6,0,0.,4.8,4.,4.8,0.,4.8,0.,4.8
1979-08-05 06:31:34.510 ,6,0,0.,4.8,4.,4.8,0.,4.8,0.,4.8
1979-08-05 06:31:39.310 ,6,0,0.,4.8,6.,4.8,0.,4.8,0.,4.8
1979-08-05 06:31:44.110 ,6,0,0.,4.8,1.,4.8,0.,4.8,0.,4.8
1979-08-05 06:31:48.910 ,6,0,0.,4.8,2.,4.8,0.,4.8,0.,4.8
1979-08-05 06:31:53.710 ,6,0,0.,4.8,1.,4.8,0.,4.8,0.,4.8
1979-08-05 06:31:58.510 ,5,0,,0,,0,,0,,0
1979-08-05 06:32:03.310 ,5,0,0.,4.8,4.,4.8,0.,4.8,0.,4.8
1979-08-05 06:32:08.110 ,5,0,0.,4.8,4.,4.8,0.,4.8,0.,4.8
1979-08-05 06:32:12.910 ,5,0,0.,4.8,0.,4.8,1.,4.8,0.,4.8
1979-08-05 06:32:17.710 ,5,0,0.,4.8,1.,4.8,0.,4.8,0.,4.8
1979-08-05 06:32:22.510 ,5,0,0.,4.8,3.,4.8,0.,4.8,0.,4.8
1979-08-05 06:32:27.310 ,5,0,0.,4.8,5.,4.8,1.,4.8,0.,4.8
1979-08-05 06:32:32.110 ,5,0,0.,4.8,3.,4.8,0.,4.8,0.,4.8
1979-08-05 06:32:36.910 ,5,0,0.,4.8,1.,4.8,0.,4.8,0.,4.8
1979-08-05 06:32:41.710 ,5,0,0.,4.8,2.,4.8,0.,4.8,0.,4.8
1979-08-05 06:32:46.510 ,4,0,0.,4.8,1.,4.8,1.,4.8,0.,4.8
1979-08-05 06:32:51.310 ,4,0,0.,4.8,1.,4.8,0.,4.8,0.,4.8
1979-08-05 06:32:56.110 ,4,0,0.,4.8,3.,4.8,0.,4.8,0.,4.8
1979-08-05 06:33:00.910 ,4,0,0.,4.8,3.,4.8,0.,4.8,1.,4.8
1979-08-05 06:33:05.710 ,4,0,0.,4.8,4.,4.8,0.,4.8,0.,4.8
1979-08-05 06:33:10.510 ,4,0,0.,4.8,0.,4.8,0.,4.8,0.,4.8
1979-08-05 06:33:15.310 ,4,0,0.,4.8,2.,4.8,1.,4.8,0.,4.8
1979-08-05 06:33:20.110 ,4,0,0.,4.8,1.,4.8,1.,4.8,1.,4.8
1979-08-05 06:33:24.910 ,4,0,0.,4.8,1.,4.8,1.,4.8,0.,4.8